SCP
2 2 3 3 3 2 2 2 2 2 2 2 2 1 1 1 1 1 1 1 1 1 1 1 1 1 0 0 0 0 0 0 0 0 0 0 0 0 0 0 0 0 0
2 3 3 3 3 3 2 2 2 2 2 2 2 1 1 1 1 1 1 1 1 1 1 1 1 0 0 0 0 0 0 0 0 0 0 0 0 0 0 0 0 0 0
2 3 3 3 2 2 2 2 2 2 2 2 1 1 1 1 1 1 1 1 1 1 1 1 0 0 0 0 0 0 0 0 0 0 0 0 0 0 0 0 0 0 0
2 2 2 2 2 2 2 2 2 2 2 2 1 1 1 1 1 1 1 1 1 1 1 0 0 0 0 0 0 0 0 0 0 0 0 0 0 0 0 0 0 0 0
2 2 2 2 2 2 2 2 2 2 2 2 1 1 1 1 1 1 1 1 1 1 1 0 0 0 0 0 0 0 0 0 0 0 0 0 0 0 0 0 0 0 0
1 2 2 2 2 2 2 2 2 2 1 1 1 1 1 1 1 1 1 1 1 1 0 0 0 0 0 0 0 0 0 0 0 0 0 0 0 0 0 0 0 0 0
1 1 2 2 2 2 2 2 2 2 1 1 1 1 1 1 1 1 1 1 0 0 0 0 0 0 0 0 0 0 0 0 0 0 0 0 0 0 0 0 0 0 0
1 1 1 1 1 2 2 2 2 1 1 1 1 1 1 1 1 1 1 0 0 0 0 0 0 0 0 0 0 0 0 0 0 0 0 0 0 0 0 0 0 0 0
1 1 1 1 1 1 1 1 1 1 1 1 1 1 1 1 1 1 1 0 0 0 0 0 0 0 0 0 0 0 0 0 0 0 0 0 0 0 0 0 0 0 0
1 1 1 1 1 1 1 1 1 1 1 1 1 1 1 1 1 0 0 0 0 0 0 0 0 0 0 0 0 0 0 0 0 0 0 0 0 0 0 0 0 0 0
1 1 1 1 1 1 1 1 1 1 1 1 1 1 1 1 0 0 0 0 0 0 0 0 0 0 0 0 0 0 0 0 0 0 0 0 0 0 0 0 0 0 0
1 1 1 1 1 1 1 1 1 1 1 1 1 1 1 0 0 0 0 0 0 0 0 0 0 0 0 0 0 0 0 0 0 0 0 0 0 0 0 0 0 0 0
1 1 1 1 1 1 1 1 1 1 0 0 0 0 0 0 0 0 0 0 0 0 0 0 0 0 0 0 0 0 0 0 0 0 0 0 0 0 0 0 0 0 0
1 1 1 1 1 1 0 0 0 0 0 0 0 0 0 0 0 0 0 0 0 0 0 0 0 0 0 0 0 0 0 0 0 0 0 0 0 0 0 0 0 0 0
0 1 1 1 1 1 0 0 0 0 0 0 0 0 0 0 0 0 0 0 0 0 0 0 0 0 0 0 0 0 0 0 0 0 0 0 0 0 0 0 0 0 0
0 0 0 1 1 0 0 0 0 0 0 0 0 0 0 0 0 0 0 0 0 0 0 0 0 0 0 0 0 0 0 0 0 0 0 0 0 0 0 0 0 0 0
0 0 0 0 0 0 0 0 0 0 0 0 0 0 0 0 0 0 0 0 0 0 0 0 0 0 0 0 0 0 0 0 0 0 0 0 0 0 0 0 0 0 0
0 0 0 0 1 1 0 0 0 0 0 0 0 0 0 0 0 0 0 0 0 0 0 0 0 0 0 0 0 0 0 0 0 0 0 0 0 0 0 0 0 0 0
0 0 0 0 0 0 0 0 0 0 0 0 0 0 0 0 0 0 0 0 0 0 0 0 0 0 0 0 0 0 0 0 0 0 0 0 0 0 0 0 0 0 0
0 0 0 0 0 0 0 0 0 0 0 0 0 0 0 0 0 0 0 0 0 0 0 0 0 0 0 0 0 0 0 0 0 0 0 0 0 0 0 0 0 0 0
0 0 0 0 0 0 0 0 0 0 0 0 0 0 0 0 0 0 0 0 0 0 0 0 0 0 0 0 0 0 0 0 0 0 0 0 0 0 0 0 0 0 0
0 0 0 0 0 0 0 0 0 0 0 0 0 0 0 0 0 0 0 0 0 0 0 0 0 0 0 0 0 0 0 0 0 0 0 0 0 0 0 0 0 0 0
0 0 0 0 0 0 0 0 0 0 0 0 0 0 0 0 0 0 0 0 0 0 0 0 0 0 0 0 0 0 0 0 0 0 0 0 0 0 0 0 0 0 0
0 0 0 0 0 0 0 0 0 0 0 0 0 0 0 0 0 0 0 0 0 0 0 0 0 0 0 0 0 0 0 0 0 0 0 0 0 0 0 0 0 0 0
0 0 0 0 0 0 0 0 0 0 0 0 0 0 0 0 0 0 0 0 0 0 0 0 0 0 0 0 0 0 0 0 0 0 0 0 0 0 0 0 0 0 0
0 0 0 0 0 0 0 0 0 0 0 0 0 0 0 0 0 0 0 0 0 0 0 0 0 0 0 0 0 0 0 0 0 0 0 0 0 0 0 0 0 0 0
Wind_Speed
9 8 8 8 9 8 7 7 6 5 4 4 3 3 2 2 2 2 2 2 1 1 0 1 1 1 1 2 3 3 4 3 2 2 3 3 2 2 1 1 1 1 1
10 10 9 9 8 8 7 7 6 5 4 3 2 2 3 2 2 2 2 2 1 0 0 1 1 2 1 2 2 2 3 3 2 2 3 2 1 2 1 1 1 1 0
10 10 10 9 9 8 7 6 6 5 4 4 3 2 2 2 2 2 2 1 1 1 1 1 1 2 2 1 2 2 3 3 3 2 1 2 2 2 1 2 1 1 1
9 10 10 9 8 8 7 6 6 5 4 4 3 3 3 3 2 2 2 2 1 1 1 1 1 2 2 2 2 2 3 3 3 3 2 2 2 1 2 2 1 1 2
8 8 9 9 8 8 7 7 6 5 4 3 3 3 2 2 2 2 2 2 1 1 1 1 1 1 1 2 2 3 3 2 3 3 3 3 2 3 2 3 2 2 1
7 7 7 8 7 7 7 7 7 6 5 4 3 3 3 3 3 2 2 1 1 1 1 1 1 2 2 2 2 2 3 2 3 3 3 3 2 3 2 3 3 2 2
7 7 7 7 7 7 7 7 7 6 5 4 3 3 3 3 3 2 2 1 1 1 1 1 1 1 1 2 2 2 2 2 3 3 2 3 2 2 2 3 3 3 2
6 6 6 7 6 7 7 8 7 6 5 5 4 3 3 2 2 1 1 1 1 1 1 0 1 1 2 2 2 2 3 2 3 4 3 3 2 2 2 2 2 3 2
7 7 5 6 7 7 7 8 7 6 5 5 5 3 3 2 2 1 1 1 0 0 1 0 1 2 2 2 2 2 3 2 3 3 3 3 2 2 2 2 2 2 2
8 8 7 6 6 7 7 7 7 6 5 5 4 3 3 3 2 1 2 1 0 0 0 1 1 2 2 2 2 3 3 2 3 2 3 3 2 2 2 2 2 2 2
7 8 7 7 7 6 6 6 7 6 5 4 4 3 3 2 2 2 2 1 1 0 0 1 1 2 2 2 3 3 3 3 3 3 3 3 3 2 2 2 2 2 1
6 7 7 7 7 6 6 6 6 5 5 4 4 3 2 2 2 1 1 1 0 0 0 1 1 2 2 2 3 3 3 3 3 3 3 3 3 3 3 2 3 2 2
7 7 8 7 6 6 5 5 5 5 4 4 4 4 3 2 2 1 1 0 0 0 1 1 1 2 3 3 3 3 3 3 3 3 3 3 3 3 2 3 3 2 2
8 8 7 7 6 5 5 5 5 5 4 4 3 3 3 2 2 1 1 0 0 1 1 1 2 2 2 3 3 4 3 3 3 3 2 2 3 3 4 3 3 2 2
8 8 7 6 6 5 5 4 4 4 4 4 3 3 3 2 2 1 0 0 0 1 1 1 1 2 2 3 4 4 4 3 3 3 3 2 2 3 3 3 3 3 2
8 8 7 7 6 6 5 4 4 3 3 3 3 3 2 2 2 1 1 0 0 1 1 1 2 2 3 4 4 4 4 4 3 3 3 3 3 3 3 5 5 4 3
6 7 7 7 6 6 5 5 4 3 3 3 3 3 2 2 2 1 1 0 1 1 1 1 1 1 2 3 4 4 3 4 3 3 3 4 4 3 3 4 4 5 6
6 6 6 6 5 6 5 5 4 4 4 3 3 2 2 2 2 2 1 0 0 1 1 1 1 1 2 3 4 5 4 4 4 3 3 3 3 4 5 5 4 3 3
6 5 5 5 6 6 6 5 5 5 4 4 3 3 2 2 2 2 1 1 1 1 2 2 2 1 1 3 4 4 3 3 4 4 3 3 2 3 5 4 4 4 4
6 5 5 5 6 5 6 5 5 5 4 4 3 2 1 1 2 1 1 1 1 2 3 2 2 2 2 3 4 4 3 3 4 3 2 2 2 3 3 3 4 4 5
7 6 6 5 5 6 6 5 5 4 4 3 2 2 1 1 2 1 1 2 2 3 3 3 3 2 3 3 4 5 3 4 4 3 2 2 4 5 5 4 3 5 6
7 6 5 5 5 6 6 6 5 4 3 3 2 2 2 2 1 1 2 3 3 3 4 4 3 2 2 3 3 4 5 6 5 4 3 2 5 7 8 6 7 8 7
6 5 5 6 5 6 6 6 5 4 3 3 2 2 2 2 2 2 3 3 3 3 3 3 2 1 1 1 2 4 6 6 4 5 6 7 9 9 8 9 9 7 5
6 5 5 6 5 5 5 4 4 3 3 3 2 3 3 3 2 2 3 2 2 2 2 2 2 1 1 0 1 2 3 5 4 4 6 8 10 9 9 8 6 5 5
5 5 4 5 5 5 5 5 5 4 3 3 3 3 3 3 2 1 1 2 1 2 2 3 3 2 2 2 3 3 4 4 4 5 5 5 5 4 4 4 4 5 5
5 5 4 5 5 5 5 5 5 4 4 3 3 3 2 2 3 2 1 1 3 3 3 4 4 4 4 5 6 6 6 7 5 4 5 6 5 5 4 4 4 4 4
Wind_Direction
163 147 142 139 139 142 144 144 143 144 147 149 161 162 158 155 131 116 108 107 91 71 20 355 356 341 351 344 334 324 310 302 311 314 305 286 257 258 247 265 289 281 292
154 148 146 149 147 147 146 146 151 154 156 151 155 162 157 158 134 124 133 134 126 19 351 44 356 5 339 350 335 328 313 314 330 317 309 306 295 334 322 303 270 289 292
163 158 157 153 148 149 153 152 151 148 151 151 155 153 144 160 153 149 151 147 162 139 39 36 12 343 339 357 323 326 328 318 318 321 310 310 313 328 296 294 297 338 316
163 163 161 155 154 152 148 145 142 139 146 149 156 177 172 167 165 164 147 141 144 121 96 55 14 346 337 334 324 5 327 318 316 315 293 281 281 279 294 289 290 278 282
163 161 160 157 157 155 152 148 142 142 144 151 162 177 167 154 133 124 123 139 145 125 96 95 352 335 327 344 338 331 322 318 312 311 313 309 294 262 265 288 295 287 270
152 153 149 147 153 153 150 147 147 146 148 156 165 161 140 122 108 114 134 157 148 136 69 42 360 322 324 327 325 316 312 307 309 309 307 303 303 298 288 286 286 281 278
145 144 145 150 151 147 145 141 140 139 143 148 153 146 135 128 136 162 148 149 147 119 76 13 318 316 326 323 330 310 307 314 316 302 295 295 288 289 289 286 291 293 282
137 140 150 144 141 134 140 138 135 135 137 141 136 129 124 134 129 108 107 103 49 72 86 312 301 309 317 321 330 311 307 317 306 305 302 294 287 283 268 267 280 288 281
139 138 148 142 138 135 136 138 137 138 140 136 133 139 139 122 111 114 110 98 74 349 51 353 301 308 308 307 313 301 301 304 298 300 300 294 293 287 278 262 249 249 276
137 140 137 132 133 135 136 138 138 141 143 143 151 142 130 131 136 145 126 116 171 6 243 290 298 300 296 300 304 298 295 302 301 297 304 304 299 302 298 287 271 249 248
138 134 133 134 129 128 135 135 137 140 146 145 136 130 142 150 161 164 144 129 139 187 286 286 292 304 310 309 304 299 307 312 314 315 318 316 311 314 310 309 304 288 254
137 133 131 130 128 132 134 136 141 146 149 148 144 152 157 153 161 141 119 116 134 225 265 290 293 300 308 304 306 308 322 321 323 323 328 333 331 334 335 333 322 302 268
137 134 132 134 137 141 139 140 143 141 145 149 150 153 153 154 152 150 137 117 298 302 306 308 316 324 321 321 321 316 321 322 326 331 337 336 336 338 330 315 310 302 306
142 138 138 140 143 144 141 147 147 145 146 146 143 141 151 151 153 154 149 154 159 300 310 322 326 329 334 345 339 331 323 320 328 337 334 337 333 330 318 308 308 308 306
147 145 147 147 150 148 142 148 145 141 139 141 138 139 142 143 138 135 141 181 212 314 333 328 326 332 337 351 348 325 321 333 338 334 324 323 328 321 306 310 314 313 299
157 157 156 156 157 153 149 151 145 143 147 151 149 143 142 149 158 174 188 189 50 360 344 337 334 344 349 8 356 337 329 327 321 313 309 295 285 284 281 280 280 275 281
157 160 161 159 157 154 151 151 152 155 157 157 156 162 170 173 180 178 137 77 21 355 339 331 338 351 356 339 333 326 306 305 305 303 300 307 322 337 321 295 275 252 245
147 149 152 149 153 153 152 154 160 165 165 163 168 176 187 177 169 149 124 80 359 321 305 312 307 304 328 325 322 318 292 285 289 287 292 298 307 336 330 310 308 292 270
136 136 140 142 148 153 156 159 166 168 172 176 178 182 194 185 170 152 164 194 228 262 269 277 288 300 288 290 304 314 292 290 290 286 298 297 314 333 331 316 313 312 303
134 136 146 146 147 153 158 166 171 176 186 187 185 178 181 188 170 171 196 230 246 252 264 265 269 272 269 262 271 289 283 291 293 291 295 311 295 296 319 314 312 308 309
137 144 154 157 157 160 162 170 178 186 189 187 182 172 191 200 180 182 230 240 249 253 256 257 256 252 253 242 256 261 268 288 292 294 296 297 300 299 298 290 276 274 289
143 152 152 150 151 158 167 177 184 185 186 190 190 191 202 214 185 198 232 239 248 252 247 247 245 237 229 237 249 255 257 272 284 290 293 285 293 295 292 283 269 274 285
141 145 146 144 150 164 176 182 178 179 189 194 193 205 205 201 208 232 244 247 251 261 260 259 259 235 218 220 245 254 274 278 275 294 296 290 284 286 279 264 263 268 262
138 142 148 147 151 163 170 171 169 178 189 193 198 213 213 210 214 239 257 260 273 288 299 303 307 307 298 1 299 292 283 282 280 289 295 287 276 269 266 270 261 243 244
135 143 144 145 151 156 159 162 165 176 187 204 215 219 224 218 219 231 278 273 275 266 276 306 317 319 313 299 289 295 302 311 324 319 292 285 283 272 261 259 261 251 243
138 142 146 148 150 153 155 161 170 177 183 203 212 227 228 218 213 201 239 269 245 247 249 250 259 275 262 271 279 284 288 292 302 303 283 280 278 282 282 275 269 264 260